Stündliche Wetter Ábrahámhegy

Heute, 23 Juni, Mittwoch

Zeit Temperatur Niederschläge Wind Luftdruck Luftfeuchtigkeit
00:00 +23°C° 0 mm 1 m/S 745 mmHg 70%
01:00 +22°C° 0 mm 1 m/S 745 mmHg 72%
02:00 +21°C° 0 mm 1 m/S 746 mmHg 77%
03:00 +19°C° 0 mm 2 m/S 746 mmHg 81%
04:00 +18°C° 0 mm 2 m/S 746 mmHg 86%
05:00 +20°C° 0 mm 2 m/S 746 mmHg 83%
06:00 +21°C° 0 mm 3 m/S 747 mmHg 81%
07:00 +24°C° 0 mm 3 m/S 747 mmHg 79%
08:00 +26°C° 0 mm 3 m/S 748 mmHg 72%
09:00 +27°C° 0 mm 3 m/S 748 mmHg 65%
10:00 +29°C° 0 mm 3 m/S 748 mmHg 59%
11:00 +30°C° 0 mm 3 m/S 748 mmHg 54%
12:00 +31°C° 0 mm 2 m/S 748 mmHg 50%
13:00 +32°C° 0 mm 2 m/S 748 mmHg 46%
14:00 +34°C° 0 mm 2 m/S 748 mmHg 45%
15:00 +33°C° 0 mm 1 m/S 748 mmHg 44%
16:00 +33°C° 0 mm 1 m/S 748 mmHg 43%
17:00 +32°C° 0 mm 1 m/S 748 mmHg 48%
18:00 +31°C° 0 mm 1 m/S 748 mmHg 54%
19:00 +29°C° 0 mm 1 m/S 748 mmHg 59%
20:00 +28°C° 0 mm 1 m/S 748 mmHg 63%
21:00 +27°C° 0 mm 1 m/S 748 mmHg 66%
22:00 +25°C° 0 mm 1 m/S 748 mmHg 69%
23:00 +25°C° 0.1 mm 1 m/S 748 mmHg 72%

Morgen, 24 Juni, Donnerstag

Zeit Temperatur Niederschläge Wind Luftdruck Luftfeuchtigkeit
00:00 +24°C° 0.1 mm 1 m/S 748 mmHg 74%
01:00 +24°C° 0.1 mm 1 m/S 748 mmHg 76%
02:00 +23°C° 0 mm 1 m/S 748 mmHg 77%
03:00 +23°C° 0 mm 1 m/S 748 mmHg 79%
04:00 +23°C° 0 mm 1 m/S 748 mmHg 80%
05:00 +24°C° 0 mm 2 m/S 748 mmHg 77%
06:00 +25°C° 0 mm 2 m/S 748 mmHg 73%
07:00 +27°C° 0 mm 2 m/S 748 mmHg 69%
08:00 +29°C° 0 mm 2 m/S 748 mmHg 62%
09:00 +30°C° 0 mm 2 m/S 748 mmHg 55%
10:00 +32°C° 0 mm 2 m/S 748 mmHg 49%
11:00 +34°C° 0 mm 2 m/S 748 mmHg 45%
12:00 +35°C° 0 mm 2 m/S 748 mmHg 41%
13:00 +36°C° 0 mm 2 m/S 747 mmHg 37%
14:00 +37°C° 0 mm 3 m/S 747 mmHg 36%
15:00 +37°C° 0 mm 4 m/S 747 mmHg 35%
16:00 +37°C° 0 mm 5 m/S 747 mmHg 34%
17:00 +35°C° 0 mm 4 m/S 746 mmHg 39%
18:00 +33°C° 0 mm 3 m/S 746 mmHg 44%
19:00 +30°C° 0 mm 3 m/S 746 mmHg 49%
20:00 +29°C° 0 mm 3 m/S 746 mmHg 52%
21:00 +27°C° 0 mm 3 m/S 746 mmHg 54%
22:00 +26°C° 0 mm 3 m/S 746 mmHg 57%
23:00 +25°C° 0 mm 3 m/S 746 mmHg 58%

übermorgen, 25 Juni, Freitag

Zeit Temperatur Niederschläge Wind Luftdruck Luftfeuchtigkeit
00:00 +25°C° 0 mm 2 m/S 746 mmHg 59%
01:00 +24°C° 0 mm 2 m/S 746 mmHg 60%
02:00 +24°C° 0 mm 2 m/S 746 mmHg 62%
03:00 +23°C° 0 mm 2 m/S 746 mmHg 64%
04:00 +23°C° 0 mm 2 m/S 746 mmHg 66%
05:00 +24°C° 0 mm 3 m/S 747 mmHg 66%
06:00 +23°C° 0 mm 4 m/S 747 mmHg 67%
07:00 +24°C° 0 mm 6 m/S 748 mmHg 67%
08:00 +26°C° 0 mm 5 m/S 748 mmHg 63%
09:00 +27°C° 0 mm 5 m/S 748 mmHg 58%
10:00 +28°C° 0 mm 4 m/S 748 mmHg 53%
11:00 +29°C° 0 mm 4 m/S 748 mmHg 50%
12:00 +30°C° 0 mm 4 m/S 748 mmHg 47%
13:00 +30°C° 0 mm 4 m/S 748 mmHg 44%
14:00 +30°C° 0 mm 4 m/S 747 mmHg 44%
15:00 +30°C° 0 mm 5 m/S 747 mmHg 44%
16:00 +29°C° 0 mm 6 m/S 746 mmHg 44%
17:00 +27°C° 0.8 mm 4 m/S 747 mmHg 58%
18:00 +24°C° 0.8 mm 3 m/S 747 mmHg 72%
19:00 +20°C° 0.8 mm 2 m/S 748 mmHg 86%
20:00 +19°C° 0.4 mm 2 m/S 748 mmHg 87%
21:00 +18°C° 0.4 mm 2 m/S 749 mmHg 89%
22:00 +18°C° 0.4 mm 3 m/S 749 mmHg 90%
23:00 +18°C° 0 mm 3 m/S 749 mmHg 89%

26 Juni, Samstag

Zeit Temperatur Niederschläge Wind Luftdruck Luftfeuchtigkeit
00:00 +18°C° 0 mm 4 m/S 749 mmHg 89%
01:00 +17°C° 0 mm 4 m/S 749 mmHg 88%
02:00 +17°C° 0 mm 4 m/S 749 mmHg 87%
03:00 +17°C° 0 mm 4 m/S 749 mmHg 87%
04:00 +17°C° 0 mm 3 m/S 750 mmHg 86%
05:00 +18°C° 0 mm 4 m/S 750 mmHg 81%
06:00 +19°C° 0 mm 4 m/S 750 mmHg 75%
07:00 +20°C° 0 mm 4 m/S 750 mmHg 69%
08:00 +22°C° 0 mm 4 m/S 750 mmHg 62%
09:00 +23°C° 0 mm 4 m/S 750 mmHg 54%
10:00 +26°C° 0 mm 4 m/S 750 mmHg 46%
11:00 +27°C° 0 mm 4 m/S 750 mmHg 43%
12:00 +28°C° 0 mm 4 m/S 750 mmHg 41%
13:00 +29°C° 0 mm 3 m/S 750 mmHg 38%
14:00 +29°C° 0 mm 3 m/S 749 mmHg 38%
15:00 +29°C° 0 mm 3 m/S 749 mmHg 38%
16:00 +29°C° 0 mm 3 m/S 749 mmHg 38%
17:00 +28°C° 0 mm 2 m/S 749 mmHg 45%
18:00 +26°C° 0 mm 2 m/S 749 mmHg 52%
19:00 +25°C° 0 mm 1 m/S 749 mmHg 59%
20:00 +24°C° 0 mm 1 m/S 749 mmHg 62%
21:00 +22°C° 0 mm 1 m/S 749 mmHg 65%
22:00 +19°C° 0 mm 0 m/S 749 mmHg 68%
23:00 +19°C° 0 mm 0 m/S 749 mmHg 69%

27 Juni, Sonntag

Zeit Temperatur Niederschläge Wind Luftdruck Luftfeuchtigkeit
00:00 +18°C° 0 mm 0 m/S 749 mmHg 71%
01:00 +18°C° 0 mm 0 m/S 749 mmHg 72%
02:00 +17°C° 0 mm 0 m/S 750 mmHg 73%
03:00 +17°C° 0 mm 0 m/S 750 mmHg 74%
04:00 +17°C° 0 mm 0 m/S 750 mmHg 75%
05:00 +18°C° 0 mm 0 m/S 750 mmHg 70%
06:00 +20°C° 0 mm 0 m/S 750 mmHg 65%
07:00 +22°C° 0 mm 0 m/S 750 mmHg 60%
08:00 +25°C° 0 mm 1 m/S 750 mmHg 56%
09:00 +27°C° 0 mm 1 m/S 750 mmHg 52%
10:00 +28°C° 0 mm 2 m/S 750 mmHg 47%
11:00 +29°C° 0 mm 2 m/S 749 mmHg 45%
12:00 +30°C° 0 mm 2 m/S 749 mmHg 42%
13:00 +31°C° 0 mm 2 m/S 749 mmHg 40%
14:00 +31°C° 0 mm 2 m/S 749 mmHg 39%
15:00 +31°C° 0 mm 2 m/S 749 mmHg 39%
16:00 +31°C° 0 mm 3 m/S 748 mmHg 38%
17:00 +30°C° 0 mm 3 m/S 748 mmHg 44%
18:00 +28°C° 0 mm 3 m/S 748 mmHg 51%
19:00 +27°C° 0 mm 3 m/S 748 mmHg 57%
20:00 +25°C° 0 mm 2 m/S 748 mmHg 59%
21:00 +24°C° 0 mm 2 m/S 748 mmHg 61%
22:00 +23°C° 0 mm 2 m/S 748 mmHg 62%
23:00 +21°C° 0 mm 2 m/S 748 mmHg 65%

28 Juni, Montag

Zeit Temperatur Niederschläge Wind Luftdruck Luftfeuchtigkeit
00:00 +21°C° 0 mm 2 m/S 748 mmHg 67%
01:00 +20°C° 0 mm 2 m/S 748 mmHg 69%
02:00 +20°C° 0 mm 2 m/S 748 mmHg 71%
03:00 +19°C° 0 mm 2 m/S 748 mmHg 73%
04:00 +19°C° 0 mm 2 m/S 748 mmHg 75%
05:00 +20°C° 0 mm 2 m/S 748 mmHg 70%
06:00 +22°C° 0 mm 3 m/S 748 mmHg 64%
07:00 +25°C° 0 mm 3 m/S 748 mmHg 58%
08:00 +27°C° 0 mm 4 m/S 748 mmHg 53%
09:00 +29°C° 0 mm 4 m/S 748 mmHg 49%
10:00 +30°C° 0 mm 5 m/S 748 mmHg 44%
11:00 +32°C° 0 mm 5 m/S 748 mmHg 41%
12:00 +33°C° 0 mm 4 m/S 748 mmHg 38%
13:00 +34°C° 0 mm 4 m/S 747 mmHg 36%
14:00 +35°C° 0 mm 4 m/S 747 mmHg 35%
15:00 +35°C° 0 mm 4 m/S 747 mmHg 34%
16:00 +35°C° 0 mm 4 m/S 746 mmHg 34%
17:00 +34°C° 0 mm 4 m/S 746 mmHg 40%
18:00 +32°C° 0 mm 4 m/S 746 mmHg 47%
19:00 +29°C° 0 mm 3 m/S 746 mmHg 53%
20:00 +28°C° 0 mm 3 m/S 746 mmHg 56%
21:00 +27°C° 0 mm 3 m/S 746 mmHg 59%
22:00 +25°C° 0 mm 2 m/S 746 mmHg 62%
23:00 +24°C° 0 mm 2 m/S 746 mmHg 64%
Mehr zeigen

Wir brauchen deine Erlaubnis

Meteoprog und unser Service Anbieter werden persönliche Daten aufbewahren, so wie Cookies, Geräte Bezeichnung oder ähnliche Technologien von deinem Gerät und Prozess, so wie Persönliche Daten Inhalte und Werbungen, genauso wie social Media und den Verkehr zu analysieren.

  • Aufbewahrung und/oder Zugang zu deiner Geräte Informationen.

    Cookies, Geräte Bezeichnung oder andere Informationen, können aufbewahrt oder Zugang zu deinem Gerät erhalten, für den Grund, der oben angegeben wird.

  • Personalisierte Werbung und Inhalte, Messungen, Einblick in das Publikum und Produkt Entwicklung.

    Werbungen und Inhalte können personalisiert werden, basierend auf ein Profil. Mehr Daten können besser personalisierte Werbungen und Inhalte hinzufügen. Werbung und Inhalte können gezeigt und gemessen werden. Einblicke über das Publikum, welche die Werbung gesehen haben und den Inhalt, können abgeleitet werden. So wie Daten können genutzt werden, um es zu verbessern oder die Benutzer Erfahrung zu verbessern das System und die Software.

Wenn du “Ich stimme zu” klickst, erlaubst du uns, die Cookies zu benutzen die Geräte Bezeichnung, den Web oder ähnliche Technologien zu benutzen. Deine Settings, können in deinem Gerät bei deinem Browser geändert werden.

Für den bestimmten Zweck, berechtigten Interessen beruhen darauf, mehr als auf den Inhalt. Du kannst mehr darüber in unseren Privaten und Cookie Politik lesen.